Weather History for Clinton, MO

Change the Weather History Date:

Friday, February 1, 2013

  Actual Average (KSZL) Record (KSZL)
Temperature  
Mean Temperature 20 °F -  
Max Temperature 30 °F 40 °F 62 °F (2003)
Min Temperature 10 °F 22 °F 6 °F (2001)
Degree Days  
Heating Degree Days 45    
Moisture  
Dew Point 9 °F    
Average Humidity 58    
Maximum Humidity 73    
Minimum Humidity 40    
Precipitation  
Precipitation 0.00 in - - ()
Sea Level Pressure  
Sea Level Pressure 30.36 in    
Wind  
Wind Speed - (North)    
Max Wind Speed -    
Max Gust Speed -    
Visibility 10 miles    
Events      
Averages and records for this station are not official NWS values.
T = Trace of Precipitation, MM = Missing Value Source: NWS Daily Summary

Daily Weather History Graph

Daily Weather History Graph

Search for Another Location

Airport:

Trip Planner

Search our weather history database for the weather conditions in past years. The results will help you decide how hot, cold, wet, or windy it might be!

Date:

Astronomy

Feb. 01, 2013 Rise Set
Actual Time 7:19 AM CST 5:37 PM CST
Civil Twilight 6:51 AM CST 6:05 PM CST
Nautical Twilight 6:20 AM CST 6:37 PM CST
Astronomical Twilight 5:49 AM CST 7:08 PM CST
Moon 11:39 PM CST (2/1) 9:58 AM CST (2/1)
Length of Visible Light 11h 13m
Length of Day
10h 17m
Waning Gibbous, 70% of the Moon is Illuminated
Feb 1
Waning Gibbous
Feb 3
Last Quarter
Feb 10
New
Feb 17
First Quarter
Feb 25
Full

Hourly Weather History & Observations

Time (CST) Temp. Dew Point Humidity Pressure Visibility Wind Dir Wind Speed Gust Speed Precip Events Conditions
12:15 AM 12.2 °F 3.2 °F 67% 30.47 in 10.0 mi North - - N/A   Clear
12:35 AM 12.2 °F 3.2 °F 67% 30.48 in 10.0 mi North - - N/A   Clear
1:15 AM 12.2 °F 3.2 °F 67% 30.47 in 10.0 mi North - - N/A   Clear
1:35 AM 12.2 °F 3.2 °F 67% 30.47 in 10.0 mi North - - N/A   Clear
1:55 AM 12.2 °F 3.2 °F 67% 30.46 in 10.0 mi North - - N/A   Clear
2:15 AM 12.2 °F 3.2 °F 67% 30.47 in 10.0 mi North - - N/A   Clear
2:35 AM 12.2 °F 3.2 °F 67% 30.47 in 10.0 mi North - - N/A   Clear
2:55 AM 12.2 °F 3.2 °F 67% 30.46 in 10.0 mi North - - N/A   Clear
3:15 AM 12.2 °F 3.2 °F 67% 30.45 in 10.0 mi North - - N/A   Clear
3:35 AM 12.2 °F 3.2 °F 67% 30.45 in 10.0 mi North - - N/A   Clear
3:55 AM 12.2 °F 3.2 °F 67% 30.45 in 10.0 mi North - - N/A   Clear
4:15 AM 10.4 °F 3.2 °F 73% 30.45 in 10.0 mi North - - N/A   Clear
4:35 AM 12.2 °F 5.0 °F 73% 30.44 in 10.0 mi North - - N/A   Clear
4:55 AM 12.2 °F 3.2 °F 67% 30.44 in 10.0 mi North - - N/A   Clear
5:15 AM 12.2 °F 5.0 °F 73% 30.43 in 10.0 mi North - - N/A   Clear
5:35 AM 12.2 °F 3.2 °F 67% 30.44 in 10.0 mi North - - N/A   Clear
5:55 AM 12.2 °F 5.0 °F 73% 30.43 in 10.0 mi North - - N/A   Clear
6:15 AM 12.2 °F 5.0 °F 73% 30.42 in 10.0 mi North - - N/A   Clear
6:35 AM 12.2 °F 5.0 °F 73% 30.42 in 10.0 mi North - - N/A   Clear
6:55 AM 12.2 °F 3.2 °F 67% 30.44 in 9.0 mi North - - N/A   Clear
7:15 AM 12.2 °F 5.0 °F 73% 30.45 in 10.0 mi North - - N/A   Clear
7:35 AM 12.2 °F 5.0 °F 73% 30.47 in 8.0 mi North - - N/A   Clear
7:55 AM 12.2 °F 5.0 °F 73% 30.48 in 8.0 mi North - - N/A   Clear
8:15 AM 14.0 °F 6.8 °F 73% 30.48 in 8.0 mi North - - N/A   Clear
8:35 AM 15.8 °F 5.0 °F 62% 30.50 in 9.0 mi North - - N/A   Clear
8:55 AM 15.8 °F 5.0 °F 62% 30.50 in 9.0 mi North - - N/A   Clear
9:15 AM 17.6 °F 5.0 °F 58% 30.49 in 9.0 mi North - - N/A   Clear
9:35 AM 17.6 °F 3.2 °F 53% 30.49 in 10.0 mi North - - N/A   Clear
9:55 AM 19.4 °F 5.0 °F 54% 30.49 in 9.0 mi North - - N/A   Clear
10:15 AM 19.4 °F 5.0 °F 54% 30.48 in 9.0 mi North - - N/A   Clear
10:35 AM 19.4 °F 5.0 °F 54% 30.46 in 9.0 mi North - - N/A   Clear
10:55 AM 21.2 °F 5.0 °F 50% 30.46 in 9.0 mi North - - N/A   Clear
11:15 AM 23.0 °F 6.8 °F 50% 30.45 in 9.0 mi North - - N/A   Clear
11:35 AM 23.0 °F 5.0 °F 46% 30.44 in 9.0 mi North - - N/A   Clear
11:55 AM 23.0 °F 6.8 °F 50% 30.43 in 10.0 mi North - - N/A   Clear
12:15 PM 26.6 °F 8.6 °F 47% 30.40 in 9.0 mi North - - N/A   Partly Cloudy
12:35 PM 24.8 °F 8.6 °F 50% 30.39 in 9.0 mi North - - N/A   Mostly Cloudy
12:55 PM 26.6 °F 8.6 °F 47% 30.38 in 10.0 mi North - - N/A   Scattered Clouds
1:15 PM 28.4 °F 8.6 °F 43% 30.36 in 9.0 mi North - - N/A   Partly Cloudy
1:35 PM 28.4 °F 8.6 °F 43% 30.36 in 10.0 mi North - - N/A   Partly Cloudy
1:55 PM 28.4 °F 8.6 °F 43% 30.35 in 10.0 mi North - - N/A   Mostly Cloudy
2:15 PM 28.4 °F 8.6 °F 43% 30.34 in 10.0 mi North - - N/A   Mostly Cloudy
2:35 PM 30.2 °F 8.6 °F 40% 30.34 in 9.0 mi North - - N/A   Mostly Cloudy
3:15 PM 30.2 °F 10.4 °F 44% 30.31 in 10.0 mi North - - N/A   Mostly Cloudy
3:35 PM 30.2 °F 10.4 °F 44% 30.31 in 9.0 mi North - - N/A   Partly Cloudy
3:55 PM 30.2 °F 10.4 °F 44% 30.30 in 10.0 mi North - - N/A   Scattered Clouds
4:15 PM 30.2 °F 12.2 °F 47% 30.29 in 10.0 mi North - - N/A   Mostly Cloudy
4:35 PM 30.2 °F 12.2 °F 47% 30.28 in 10.0 mi North - - N/A   Mostly Cloudy
4:55 PM 30.2 °F 12.2 °F 47% 30.27 in 10.0 mi North - - N/A   Mostly Cloudy
5:15 PM 30.2 °F 14.0 °F 51% 30.27 in 9.0 mi North - - N/A   Overcast
5:35 PM 30.2 °F 14.0 °F 51% 30.25 in 9.0 mi North - - N/A   Overcast
5:55 PM 30.2 °F 14.0 °F 51% 30.24 in 10.0 mi North - - N/A   Overcast
6:15 PM 30.2 °F 14.0 °F 51% 30.24 in 10.0 mi North - - N/A   Overcast
6:35 PM 30.2 °F 14.0 °F 51% 30.23 in 10.0 mi North - - N/A   Scattered Clouds
6:55 PM 30.2 °F 14.0 °F 51% 30.23 in 10.0 mi North - - N/A   Clear
7:15 PM 30.2 °F 14.0 °F 51% 30.22 in 10.0 mi North - - N/A   Partly Cloudy
7:35 PM 30.2 °F 14.0 °F 51% 30.22 in 10.0 mi North - - N/A   Mostly Cloudy
7:55 PM 30.2 °F 14.0 °F 51% 30.23 in 10.0 mi North - - N/A   Scattered Clouds
8:15 PM 30.2 °F 14.0 °F 51% 30.22 in 10.0 mi North - - N/A   Overcast
8:35 PM 30.2 °F 15.8 °F 55% 30.24 in 10.0 mi North - - N/A   Overcast
8:55 PM 30.2 °F 17.6 °F 60% 30.23 in 10.0 mi North - - N/A   Overcast
9:15 PM 30.2 °F 17.6 °F 60% 30.22 in 10.0 mi North - - N/A   Scattered Clouds
9:35 PM 30.2 °F 15.8 °F 55% 30.22 in 10.0 mi North - - N/A   Clear
9:55 PM 28.4 °F 15.8 °F 59% 30.21 in 10.0 mi North - - N/A   Clear
10:15 PM 28.4 °F 15.8 °F 59% 30.20 in 10.0 mi North - - N/A   Clear
10:35 PM 28.4 °F 15.8 °F 59% 30.20 in 10.0 mi North - - N/A   Clear
10:55 PM 28.4 °F 17.6 °F 64% 30.21 in 10.0 mi North - - N/A   Clear
11:15 PM 28.4 °F 19.4 °F 69% 30.20 in 10.0 mi North - - N/A   Clear
11:35 PM 28.4 °F 17.6 °F 64% 30.20 in 10.0 mi North - - N/A   Partly Cloudy
11:55 PM 28.4 °F 17.6 °F 64% 30.19 in 10.0 mi North - - N/A   Clear